Location: Fontaine
(46.5322°N, 0.2618°E)
Time: 21:36:59
(UTC+00:00)

Daily predictions for brighter satellites

Satellite Brightness Start Highest point End
(mag) Time Altitude Azimuth Time Altitude Azimuth Time Altitude Azimuth
CZ-2C R/B 4.3 16:38:51 10° N 16:43:28 32° WNW 16:47:59 10° SW
USA 306 1.0 16:44:02 10° NW 16:46:16 79° NNE 16:48:23 10° ESE
Cosmos 1544 2.7 16:43:25 10° N 16:46:41 81° E 16:49:55 10° S
SJ-7 4.4 16:43:53 10° SSE 16:47:46 56° ENE 16:51:44 10° N
Cosmos 1238 Rocket 3.9 16:45:35 10° SSW 16:48:59 38° W 16:52:01 10° N
ATLAS CENTAUR R/B 2.6 16:46:17 10° NW 16:50:08 57° NE 16:57:29 10° ESE
SL-16 R/B 2.8 16:44:54 10° NNW 16:50:32 66° WSW 16:56:08 10° SSE
Cosmos 1602 4.1 16:49:54 10° N 16:53:24 37° ENE 16:56:52 10° SE
SL-8 R/B 3.8 16:49:19 10° WNW 16:54:06 87° SSW 16:58:54 10° ESE
USA 305 2.7 16:51:07 10° NW 16:54:54 57° NNE 16:58:41 10° ESE
RESURS DK-1 4.4 16:54:29 10° NNE 16:54:57 10° NE 16:55:24 10° NE
Cosmos 1607 4.3 16:49:18 10° SW 16:55:38 73° NW 17:02:07 10° NE
CZ-4B R/B 4.2 16:54:35 10° ESE 16:58:53 29° ENE 17:03:07 10° N
Cosmos 1782 4.4 16:58:34 10° ESE 17:00:51 15° E 17:03:03 10° NE
Cosmos 1943 3.3 16:55:58 10° NNW 17:01:29 52° ENE 17:06:58 10° SE
ATLAS 2AS CENTAUR R/B 3.5 16:56:43 10° NNW 17:02:49 30° NNE 17:08:39 10° E
Helios 1A 4.2 16:59:39 10° NE 17:02:57 22° E 17:06:14 10° SSE
Cosmos 1500 3.0 17:01:36 10° N 17:05:08 89° WNW 17:08:40 10° S
SMAP 3.1 17:00:50 10° SSE 17:05:25 62° ENE 17:10:02 10° N
Helios 1B rocket 2.7 17:02:00 10° S 17:05:54 68° WSW 17:09:51 10° NNW
CZ-4B R/B 3.7 17:05:21 10° SSE 17:08:48 50° ENE 17:12:22 10° N
Cosmos 2297 Rocket 4.1 17:07:36 10° W 17:11:59 23° NW 17:16:24 10° N
Cosmos 407 Rocket 3.8 17:08:05 10° N 17:12:59 41° ENE 17:17:48 10° SE
Radarsat Rocket 4.5 17:08:10 10° SE 17:13:24 36° ENE 17:18:54 10° N
SOZ 4.4 17:11:52 10° W 17:13:59 50° NNW 17:16:19 15° ENE
Cosmos 405 Rocket 4.0 17:11:24 10° SW 17:14:59 40° WNW 17:18:39 10° N
Cosmos 2219 4.1 17:12:53 10° SW 17:18:16 46° NW 17:23:41 10° NNE
ISS -2.4 17:15:27 10° WNW 17:18:38 41° SW 17:21:49 10° SE
Cosmos 2251 Rocket 3.7 17:15:35 10° NNW 17:20:49 51° ENE 17:26:02 10° SE
Lacrosse 5 2.8 17:24:27 10° S 17:28:55 32° SE 17:31:43 19° ENE
Cosmos-2242 2.9 17:26:13 10° S 17:30:31 68° E 17:34:50 10° NNE
COSMO-SKYMED 1 3.4 17:29:30 15° NE 17:32:28 31° E 17:36:19 10° SSE
Lacrosse 4 Rocket 1.3 17:28:51 10° NNW 17:33:13 83° ENE 17:37:27 10° SSE
Cosmos 2082 4.4 17:27:48 10° SW 17:33:17 54° WNW 17:38:50 10° NNE
Cosmos 2058 Rocket 4.4 17:29:26 10° SW 17:33:37 40° WNW 17:37:48 10° N
Cosmos 1833 Rocket 4.5 17:31:14 10° N 17:33:39 13° NE 17:33:48 13° NE
APEX 2.3 17:35:52 10° SSW 17:38:51 70° ESE 17:39:57 32° NE
Meteor 2-2 Rocket 4.3 17:34:34 10° S 17:40:11 59° E 17:45:58 10° NNE
Cosmos 2221 3.6 17:37:50 10° SE 17:41:02 23° E 17:41:02 23° E
Cosmos 2344 3.5 17:33:41 10° SSW 17:41:15 64° ESE 17:47:04 17° NE
USA 234 3.4 17:37:35 18° ENE 17:42:32 62° SE 17:48:59 10° SW
Meteor 1-25 Rocket 4.1 17:37:00 10° N 17:42:41 73° ENE 17:48:15 10° SSE
Cosmos 1812 2.5 17:39:58 10° S 17:43:38 88° W 17:47:20 10° N
Cosmos 1190 Rocket 4.3 17:39:59 10° NNW 17:45:06 45° ENE 17:50:10 10° SE
Cosmos 1818 3.6 17:39:50 10° SSW 17:45:10 63° ESE 17:48:46 21° NE
Cosmos 2026 Rocket 4.1 17:41:18 10° SSE 17:47:20 53° E 17:53:28 10° NNE
USA 276 1.7 17:45:28 10° W 17:47:51 53° NNW 17:48:03 51° N
Cosmos 2195 Rocket 4.4 17:48:09 10° S 17:54:24 70° E 18:00:39 10° NNE
USA 307 3.9 17:54:54 10° WNW 17:58:31 39° SW 18:02:02 10° SSE
Cosmos 1844 Rocket 2.8 17:54:01 10° S 17:59:21 50° ESE 18:02:02 28° NE
Cosmos 2263 Rocket 3.3 17:54:15 10° SW 17:59:28 40° NW 18:04:43 10° NNE
Meteor 1-26 Rocket 4.5 17:55:24 10° SSE 18:00:36 44° E 18:04:18 19° NNE
Cosmos 1766 Rocket 3.8 18:00:04 10° N 18:04:15 43° ENE 18:08:22 10° SSE
Cosmos 1092 Rocket 3.8 17:58:42 10° S 18:04:48 73° E 18:10:56 10° NNE
Nadezhda 4 Rocket 4.4 17:58:51 10° SSW 18:04:56 64° WNW 18:11:01 10° N
YAOGAN 1 4.0 18:07:02 23° NNE 18:07:02 23° NNE 18:08:55 10° N
Cosmos 1933 3.1 18:02:10 10° S 18:06:09 70° E 18:07:55 31° NNE
Cosmos 1420 Rocket 4.2 18:01:34 10° S 18:06:35 49° ESE 18:08:27 34° NE
Cosmos 2227 4.4 18:02:13 10° SSW 18:07:58 75° WNW 18:12:31 17° NNE
Cosmos 1140 Rocket 4.3 18:04:26 10° NNW 18:09:27 51° WSW 18:14:23 10° S
ADEOS 3.5 18:05:01 10° SSE 18:10:09 64° ENE 18:15:20 10° N
Meteor 1-5 Rocket 4.2 18:07:43 10° N 18:13:24 66° ENE 18:19:14 10° SSE
Cosmos 1624 Rocket 4.1 18:09:21 10° S 18:14:24 52° ESE 18:15:39 42° ENE
BREEZE-M DEB (TANK) 2.9 18:13:55 10° W 18:15:04 29° WNW 18:15:04 29° WNW
CZ-4B R/B 4.4 18:20:41 24° N 18:20:41 24° N 18:22:28 10° N
SKYMED 2 3.5 18:18:07 24° NNE 18:20:41 85° WNW 18:25:02 10° SSW
Cosmos 1603 4.3 18:16:07 10° NNW 18:21:43 59° WSW 18:27:13 10° S
Cosmos 192 4.2 18:21:57 10° SSW 18:26:50 90° WNW 18:28:35 41° NNE
SL-08 R/B 3.1 18:25:44 45° NNE 18:27:06 77° ESE 18:31:45 10° S
RESURS DK-1 3.5 18:29:33 10° NNW 18:31:56 32° N 18:31:56 32° N
Cosmos 1782 3.8 18:32:36 10° SSW 18:36:20 44° WNW 18:38:16 24° NNW
Helios 1A 4.4 18:35:01 13° N 18:38:18 36° WNW 18:42:04 10° SW
Cosmos 676 Rocket 3.8 18:33:45 10° NNW 18:39:05 77° ENE 18:40:05 58° SE
EO 1 Delta rocket 4.5 18:42:07 10° S 18:48:57 81° W 18:54:20 10° NNW
ATLAS 2AS CENTAUR R/B 2.5 18:47:39 10° NW 18:54:35 88° SW 18:56:38 48° SE
CZ-4B DEB 4.1 18:53:03 37° SSE 18:55:21 89° ENE 19:00:57 10° NNW
Cosmos 1241 Rocket 4.4 18:53:22 10° SSW 18:59:46 89° NW 19:00:35 70° NNE
Cosmos 2056 Rocket 4.1 19:03:01 10° SW 19:08:19 58° WNW 19:09:06 52° NNW
COSMO-SKYMED 1 4.4 19:06:43 21° NNW 19:08:34 29° WNW 19:12:18 10° SW
Cosmos 1844 4.2 19:05:41 10° SW 19:11:21 57° WNW 19:12:19 50° NNW
Lacrosse 5 2.5 19:06:41 10° WSW 19:10:56 53° WNW 19:10:56 53° WNW
COSMOS 2455 3.4 19:05:57 10° SSW 19:10:14 48° S 19:10:14 48° S
Timation 2 Rocket 4.4 19:08:33 10° SW 19:14:23 55° NW 19:15:41 46° NNW
Cosmos 2221 4.2 19:14:36 10° SW 19:17:46 31° W 19:17:46 31° W
Cosmos 1833 Rocket 4.4 19:13:28 10° NNW 19:15:30 22° N 19:15:30 22° N
USA 234 3.6 19:24:56 53° N 19:25:30 55° NNW 19:31:50 10° W
Cosmos 1844 Rocket 4.2 19:38:37 10° WSW 19:43:29 30° NW 19:43:44 30° NW
Cosmos 2344 4.5 19:49:26 10° W 19:56:07 36° NNW 19:57:06 35° NNW
